"startDT [UTC]","vpos","CH4 [ppm]","stdev(CH4) [ppm]","CO2 [ppm]","stdev(CO2) [ppm]","H2O_reported [%]","stdev(H2O_reported)","CavityPressure [torr]","CavityTemp [C]","OutletValve","CH4_dry [ppm]","CO2_dry [ppm]","DasTemp [C]","EtalonTemp [C]","WarmBoxTemp [C]","MPVPosition","T_ECpre [C]","T_EC1 [C]","T_EC2 [C]","p_inlet [hPa]","p_in [hPa]","p_out [hPa]","T_inlet [C]","RH_inlet [%]","dwpt_inlet [C]","T_vent [C]","RH_vent [%]","dwpt_vent [C]","flow_vent [l min-1]","flow_inlet [l min-1]","dwpt_sample [C]","T_room [C]"
2015-02-04 00:00:00,0.0,1.97531,0.00036,408.186,0.021,0.0198,0.0020,140.000,45.000,27860.50351,1.97572,408.283,32.033,45.068,45.000,0.00,0.09,-272.70,-272.74,-12,26,-0,18.9,0.6,-42.9,19.2,3.3,-26.1,5.73,2.45,-23.4,25.2
2015-02-04 00:01:00,0.0,1.97532,0.00045,408.205,0.032,0.0200,0.0018,139.999,45.000,27860.51690,1.97568,408.302,32.016,45.068,45.000,0.00,0.09,-272.71,-272.76,-12,26,-0,18.9,0.6,-42.6,19.2,3.2,-26.1,5.73,2.45,-23.4,25.2
2015-02-04 00:02:00,0.0,1.97518,0.00043,408.206,0.030,0.0202,0.0013,139.999,45.000,27858.60067,1.97561,408.306,32.002,45.068,45.000,0.00,0.09,-272.68,-272.74,-12,26,-0,18.9,0.7,-42.4,19.3,3.3,-26.1,5.73,2.45,-23.4,25.2
2015-02-04 00:03:00,0.0,1.97538,0.00041,408.175,0.045,0.0200,0.0020,139.998,45.000,27858.23495,1.97575,408.274,32.001,45.068,45.000,0.00,0.09,-272.67,-272.75,-12,26,-0,18.9,0.7,-42.4,19.3,3.3,-26.1,5.73,2.45,-23.4,25.2
2015-02-04 00:04:00,0.0,1.97536,0.00032,408.177,0.038,0.0203,0.0014,140.000,45.000,27859.96424,1.97577,408.277,32.006,45.068,45.000,0.00,0.09,-272.69,-272.74,-12,26,-0,18.9,0.7,-42.4,19.3,3.3,-26.1,5.73,2.46,-23.4,25.2
2015-02-04 00:05:00,0.0,1.97508,0.00043,408.169,0.038,0.0204,0.0019,139.999,45.000,27859.66331,1.97548,408.268,32.010,45.068,45.000,0.00,0.09,-272.69,-272.75,-12,26,-0,18.9,0.7,-42.3,19.3,3.3,-26.1,5.73,2.46,-23.4,25.2
2015-02-04 00:06:00,0.0,1.97530,0.00024,408.149,0.023,0.0198,0.0014,140.001,45.000,27859.89126,1.97567,408.246,32.000,45.068,45.000,0.00,0.09,-272.68,-272.74,-12,26,-0,18.9,0.7,-42.4,19.3,3.3,-26.1,5.73,2.47,-23.4,25.2
2015-02-04 00:07:00,0.0,1.97541,0.00044,408.159,0.032,0.0201,0.0017,140.001,45.000,27858.28513,1.97580,408.259,32.000,45.068,45.000,0.00,0.09,-272.71,-272.75,-12,26,-0,18.9,0.6,-42.6,19.3,3.3,-26.1,5.73,2.47,-23.4,25.2
2015-02-04 00:08:00,0.0,1.97602,0.00032,408.176,0.023,0.0187,0.0019,140.000,45.000,27858.33637,1.97638,408.267,31.991,45.068,45.000,0.00,0.09,-272.67,-272.73,-12,26,-0,18.9,0.6,-42.8,19.3,3.3,-26.1,5.73,2.48,-23.4,25.2
2015-02-04 00:09:00,0.0,1.97574,0.00031,408.172,0.037,0.0192,0.0016,140.000,45.000,27859.99428,1.97615,408.266,31.979,45.068,45.000,0.00,0.09,-272.67,-272.75,-12,26,-0,18.8,0.6,-43.3,19.3,3.3,-26.1,5.73,2.48,-23.4,25.2
2015-02-04 00:10:00,0.0,1.97589,0.00038,408.175,0.049,0.0188,0.0020,140.002,45.000,27858.39679,1.97622,408.268,31.972,45.068,45.000,0.00,0.09,-272.69,-272.75,-12,26,-0,18.9,0.6,-43.1,19.2,3.3,-26.1,5.73,2.48,-23.4,25.2
2015-02-04 00:11:00,0.0,1.97572,0.00044,408.182,0.025,0.0183,0.0021,140.001,45.000,27858.93159,1.97610,408.272,31.950,45.068,45.000,0.00,0.09,-272.68,-272.77,-12,26,-0,18.9,0.6,-43.2,19.2,3.3,-26.1,5.73,2.49,-23.4,25.2
2015-02-04 00:12:00,0.0,1.97572,0.00033,408.219,0.028,0.0195,0.0024,140.001,45.000,27857.46745,1.97610,408.314,31.956,45.068,45.000,0.00,0.09,-272.69,-272.78,-12,26,-0,18.9,0.6,-42.9,19.3,3.3,-26.1,5.73,2.47,-23.4,25.2
2015-02-04 00:13:00,0.0,1.97521,0.00037,408.205,0.024,0.0197,0.0019,140.001,45.000,27857.74944,1.97558,408.303,31.961,45.068,45.000,0.00,0.09,-272.70,-272.73,-12,26,-0,18.9,0.6,-42.7,19.3,3.3,-26.1,5.73,2.47,-23.4,25.2
2015-02-04 00:14:00,0.0,1.97534,0.00044,408.211,0.035,0.0202,0.0018,140.002,45.000,27857.45082,1.97571,408.308,31.959,45.068,45.000,0.00,0.09,-272.71,-272.74,-12,26,-0,18.8,0.7,-42.3,19.2,3.3,-26.1,5.73,2.47,-23.4,25.2
2015-02-04 00:15:00,0.0,1.97531,0.00032,408.210,0.032,0.0203,0.0016,139.999,45.000,27855.62530,1.97573,408.311,31.943,45.068,45.000,0.00,0.09,-272.66,-272.74,-12,26,-0,18.8,0.7,-42.0,19.2,3.3,-26.1,5.73,2.46,-23.4,25.2
2015-02-04 00:16:00,0.0,1.97534,0.00046,408.193,0.032,0.0216,0.0017,140.000,45.000,27857.23856,1.97577,408.299,31.948,45.068,45.000,0.00,0.09,-272.69,-272.74,-12,26,-0,18.9,0.7,-41.7,19.3,3.3,-26.1,5.73,2.45,-23.4,25.2
2015-02-04 00:17:00,0.0,1.97532,0.00036,408.191,0.030,0.0202,0.0012,139.999,45.000,27856.23186,1.97569,408.289,31.965,45.068,45.000,0.00,0.09,-272.71,-272.75,-12,26,-0,18.9,0.7,-42.0,19.3,3.3,-26.1,5.73,2.45,-23.5,25.2
2015-02-04 00:18:00,0.0,1.97521,0.00040,408.187,0.023,0.0208,0.0014,140.001,45.000,27857.51517,1.97562,408.290,31.968,45.068,45.000,0.00,0.09,-272.70,-272.72,-12,26,-0,18.9,0.7,-42.0,19.2,3.3,-26.1,5.73,2.44,-23.4,25.2
2015-02-04 00:19:00,0.0,1.97541,0.00033,408.179,0.022,0.0211,0.0016,140.001,45.000,27856.32781,1.97584,408.282,31.981,45.068,45.000,0.00,0.09,-272.69,-272.73,-12,26,-0,18.8,0.7,-42.0,19.3,3.3,-26.1,5.73,2.45,-23.4,25.2
2015-02-04 00:20:00,0.0,1.97519,0.00038,408.182,0.042,0.0213,0.0024,140.000,45.000,27856.23675,1.97559,408.286,31.974,45.068,45.000,0.00,0.09,-272.69,-272.76,-12,26,-0,18.8,0.7,-41.6,19.3,3.3,-26.1,5.73,2.45,-23.5,25.2
2015-02-04 00:21:00,0.0,1.97557,0.00046,408.200,0.030,0.0215,0.0025,140.000,45.000,27854.19077,1.97598,408.306,31.952,45.068,45.000,0.00,0.09,-272.69,-272.77,-12,26,-0,18.8,0.7,-41.7,19.3,3.3,-26.1,5.73,2.46,-23.4,25.2
2015-02-04 00:22:00,0.0,1.97547,0.00036,408.197,0.029,0.0211,0.0018,140.004,45.000,27855.49896,1.97586,408.301,31.936,45.068,45.000,0.00,0.09,-272.68,-272.75,-12,26,-0,18.8,0.7,-41.7,19.3,3.3,-26.1,5.73,2.47,-23.5,25.2
2015-02-04 00:23:00,0.0,1.97534,0.00038,408.179,0.039,0.0209,0.0014,139.998,45.000,27854.58716,1.97575,408.283,31.928,45.068,45.000,0.00,0.09,-272.69,-272.75,-12,26,-0,18.8,0.7,-41.9,19.2,3.3,-26.1,5.73,2.48,-23.5,25.2
2015-02-04 00:24:00,0.0,1.97552,0.00042,408.185,0.038,0.0204,0.0013,140.000,45.000,27855.12494,1.97594,408.285,31.886,45.068,45.000,0.00,0.09,-272.69,-272.76,-12,26,-0,18.8,0.7,-42.4,19.2,3.3,-26.1,5.73,2.48,-23.5,25.2
2015-02-04 00:25:00,0.0,1.97524,0.00028,408.181,0.021,0.0206,0.0018,139.999,45.000,27853.50399,1.97562,408.280,31.876,45.069,45.000,0.00,0.09,-272.68,-272.74,-12,25,-0,18.8,0.7,-42.3,19.2,3.3,-26.1,5.73,2.49,-23.5,25.2
2015-02-04 00:26:00,0.0,1.97528,0.00047,408.171,0.027,0.0209,0.0018,140.000,45.000,27854.22888,1.97570,408.275,31.875,45.068,45.000,0.00,0.09,-272.69,-272.74,-12,26,-0,18.8,0.7,-41.7,19.2,3.3,-26.1,5.73,2.48,-23.5,25.2
2015-02-04 00:27:00,0.0,1.97523,0.00030,408.190,0.029,0.0214,0.0016,140.001,45.000,27854.18857,1.97564,408.295,31.867,45.069,45.000,0.00,0.09,-272.69,-272.74,-12,26,-0,18.8,0.7,-41.3,19.2,3.3,-26.1,5.73,2.47,-23.5,25.2
2015-02-04 00:28:00,0.0,1.97514,0.00037,408.212,0.026,0.0229,0.0017,140.000,45.000,27851.93648,1.97559,408.322,31.874,45.068,45.000,0.00,0.09,-272.68,-272.74,-12,26,-0,18.8,0.8,-41.0,19.2,3.3,-26.1,5.73,2.47,-23.5,25.2
2015-02-04 00:29:00,0.0,1.97516,0.00029,408.195,0.026,0.0240,0.0017,140.000,45.000,27851.81753,1.97562,408.313,31.874,45.068,45.000,0.00,0.09,-272.70,-272.75,-12,26,-0,18.8,0.8,-40.5,19.2,3.3,-26.1,5.73,2.46,-23.5,25.2
2015-02-04 00:30:00,0.0,1.97542,0.00033,408.215,0.036,0.0237,0.0014,139.999,45.000,27849.51131,1.97586,408.331,31.875,45.068,45.000,0.00,0.09,-272.70,-272.74,-12,26,-0,18.8,0.8,-40.3,19.2,3.3,-26.1,5.73,2.45,-23.5,25.2
2015-02-04 00:31:00,0.0,1.97520,0.00034,408.209,0.035,0.0232,0.0020,139.997,45.000,27849.56513,1.97567,408.322,31.875,45.068,45.000,0.00,0.09,-272.69,-272.74,-12,26,-0,18.8,0.8,-40.3,19.3,3.3,-26.1,5.73,2.45,-23.5,25.2
2015-02-04 00:32:00,0.0,1.97510,0.00043,408.211,0.027,0.0235,0.0019,140.001,45.000,27851.52033,1.97558,408.327,31.875,45.068,45.000,0.00,0.09,-272.68,-272.75,-12,26,-0,18.8,0.8,-40.3,19.2,3.2,-26.2,5.73,2.45,-23.5,25.2
2015-02-04 00:33:00,0.0,1.97502,0.00037,408.192,0.031,0.0233,0.0023,139.998,45.000,27850.40793,1.97545,408.306,31.882,45.068,45.000,0.00,0.09,-272.69,-272.75,-12,26,-0,18.9,0.8,-40.2,19.3,3.3,-26.1,5.73,2.45,-23.5,25.1
2015-02-04 00:34:00,0.0,1.97571,0.00056,408.178,0.035,0.0229,0.0023,140.000,45.000,27853.15509,1.97613,408.292,31.887,45.068,45.000,0.00,0.09,-272.70,-272.75,-12,26,-0,18.8,0.8,-40.5,19.3,3.3,-26.1,5.73,2.45,-23.5,25.1
2015-02-04 00:35:00,0.0,1.97585,0.00031,408.202,0.027,0.0201,0.0015,140.000,45.000,27853.62255,1.97627,408.301,31.886,45.068,45.000,0.00,0.09,-272.68,-272.74,-12,26,-0,18.9,0.7,-42.1,19.2,3.3,-26.1,5.73,2.45,-23.5,25.2
2015-02-04 00:36:00,0.0,1.97541,0.00041,408.195,0.029,0.0190,0.0018,140.003,45.000,27854.71783,1.97581,408.289,31.878,45.068,45.000,0.00,0.09,-272.69,-272.75,-12,26,-0,18.8,0.6,-42.8,19.2,3.3,-26.1,5.73,2.47,-23.4,25.2
2015-02-04 00:37:00,0.0,1.97544,0.00043,408.179,0.030,0.0197,0.0018,140.000,45.000,27855.16186,1.97579,408.275,31.933,45.068,45.000,0.00,0.09,-272.69,-272.74,-12,26,-0,18.9,0.6,-42.7,19.3,3.3,-26.1,5.73,2.47,-23.5,25.2
2015-02-04 00:38:00,0.0,1.97594,0.00049,408.179,0.039,0.0187,0.0020,140.000,45.000,27856.30413,1.97627,408.269,31.942,45.068,45.000,0.00,0.09,-272.69,-272.75,-12,26,-0,18.8,0.6,-43.4,19.2,3.3,-26.1,5.73,2.48,-23.4,25.2
2015-02-04 00:39:00,0.0,1.97592,0.00036,408.193,0.037,0.0175,0.0014,140.001,45.000,27857.69755,1.97630,408.280,31.950,45.068,45.000,0.00,0.09,-272.69,-272.75,-12,26,-0,18.8,0.6,-44.0,19.2,3.3,-26.1,5.73,2.48,-23.5,25.2
2015-02-04 00:40:00,0.0,1.97553,0.00037,408.189,0.031,0.0174,0.0013,139.999,45.000,27857.19977,1.97584,408.275,31.943,45.068,45.000,0.00,0.09,-272.69,-272.75,-12,26,-0,18.8,0.5,-44.4,19.2,3.3,-26.1,5.73,2.49,-23.5,25.2
2015-02-04 00:41:00,0.0,1.97539,0.00045,408.180,0.024,0.0185,0.0016,140.000,45.000,27856.94800,1.97579,408.269,31.938,45.068,44.999,0.00,0.09,-272.68,-272.74,-12,26,-0,18.8,0.6,-43.9,19.2,3.3,-26.1,5.73,2.48,-23.5,25.2
2015-02-04 00:42:00,0.0,1.97529,0.00044,408.160,0.036,0.0204,0.0017,140.002,45.000,27857.85550,1.97566,408.261,31.941,45.068,45.000,0.00,0.09,-272.69,-272.74,-12,26,-0,18.8,0.6,-42.7,19.2,3.3,-26.1,5.73,2.47,-23.5,25.2
2015-02-04 00:43:00,0.0,1.97514,0.00038,408.154,0.037,0.0208,0.0019,140.002,45.000,27858.01135,1.97557,408.255,31.942,45.068,45.000,0.00,0.09,-272.69,-272.75,-12,26,-0,18.8,0.7,-42.1,19.2,3.3,-26.1,5.73,2.46,-23.5,25.3
2015-02-04 00:44:00,0.0,1.97487,0.00027,408.153,0.040,0.0212,0.0018,140.003,45.000,27860.01064,1.97530,408.258,31.957,45.068,45.000,0.00,0.09,-272.68,-272.75,-12,26,-0,18.8,0.7,-41.8,19.2,3.3,-26.1,5.73,2.45,-23.5,25.3
2015-02-04 00:45:00,0.0,1.97507,0.00039,408.147,0.033,0.0210,0.0013,139.999,45.000,27857.97848,1.97546,408.250,31.957,45.068,45.000,0.00,0.09,-272.69,-272.74,-12,26,-0,18.8,0.7,-42.1,19.2,3.3,-26.1,5.73,2.45,-23.5,25.3
2015-02-04 00:46:00,0.0,1.97496,0.00024,408.151,0.027,0.0209,0.0015,140.000,45.000,27858.70250,1.97537,408.253,31.944,45.068,44.999,0.00,0.09,-272.70,-272.75,-12,26,-0,18.8,0.7,-41.8,19.2,3.3,-26.1,5.73,2.45,-23.5,25.3
2015-02-04 00:47:00,0.0,1.97535,0.00036,408.174,0.037,0.0212,0.0019,140.002,45.000,27856.38059,1.97575,408.278,31.959,45.068,45.000,0.00,0.09,-272.69,-272.75,-12,26,-0,18.8,0.7,-41.6,19.2,3.3,-26.1,5.73,2.45,-23.5,25.3
2015-02-04 00:48:00,0.0,1.97510,0.00037,408.177,0.036,0.0214,0.0015,139.997,45.000,27854.99286,1.97552,408.282,31.988,45.068,45.000,0.00,0.09,-272.69,-272.75,-12,26,-0,18.8,0.7,-41.4,19.2,3.3,-26.1,5.73,2.45,-23.5,25.3
2015-02-04 00:49:00,0.0,1.97516,0.00039,408.174,0.021,0.0224,0.0015,139.999,45.000,27856.20404,1.97561,408.283,31.996,45.068,45.000,0.00,0.09,-272.69,-272.75,-12,26,-0,18.8,0.7,-41.3,19.2,3.3,-26.2,5.73,2.45,-23.5,25.3
2015-02-04 00:50:00,0.0,1.97490,0.00041,408.159,0.032,0.0228,0.0022,140.001,45.000,27855.93309,1.97534,408.270,31.966,45.068,45.000,0.00,0.09,-272.69,-272.75,-12,26,-0,18.8,0.8,-41.0,19.2,3.3,-26.1,5.73,2.46,-23.5,25.2
2015-02-04 00:51:00,0.0,1.97508,0.00036,408.156,0.027,0.0218,0.0018,140.001,45.000,27856.41251,1.97549,408.263,31.944,45.068,45.000,0.00,0.09,-272.67,-272.74,-12,26,-0,18.8,0.8,-41.1,19.2,3.3,-26.1,5.73,2.47,-23.5,25.2
2015-02-04 00:52:00,0.0,1.97537,0.00041,408.151,0.023,0.0219,0.0021,140.000,45.000,27854.61309,1.97577,408.259,31.938,45.068,45.000,0.00,0.09,-272.68,-272.74,-12,26,-0,18.8,0.7,-41.5,19.2,3.3,-26.1,5.73,2.47,-23.5,25.2
2015-02-04 00:53:00,0.0,1.97539,0.00034,408.167,0.028,0.0204,0.0015,140.000,45.000,27853.49265,1.97580,408.267,31.935,45.069,45.001,0.00,0.09,-272.69,-272.75,-12,26,-0,18.8,0.7,-41.8,19.2,3.3,-26.1,5.73,2.48,-23.5,25.2
2015-02-04 00:54:00,0.0,1.97513,0.00040,408.164,0.037,0.0207,0.0011,139.996,45.000,27852.19627,1.97551,408.265,31.907,45.069,45.000,0.00,0.09,-272.69,-272.74,-12,26,-0,18.8,0.7,-42.0,19.2,3.3,-26.1,5.73,2.49,-23.5,25.2
2015-02-04 00:55:00,0.0,1.97523,0.00040,408.199,0.025,0.0207,0.0024,139.999,45.000,27852.33033,1.97563,408.301,31.919,45.069,45.001,0.00,0.09,-272.69,-272.74,-12,26,-0,18.8,0.7,-42.0,19.2,3.3,-26.1,5.73,2.49,-23.5,25.2
2015-02-04 00:56:00,0.0,1.97530,0.00035,408.188,0.042,0.0206,0.0022,139.999,45.000,27852.05317,1.97572,408.289,31.930,45.068,45.000,0.00,0.09,-272.69,-272.75,-12,26,-0,18.8,0.7,-41.6,19.2,3.3,-26.1,5.73,2.51,-23.5,25.2
2015-02-04 00:57:00,0.0,1.97555,0.00036,408.203,0.038,0.0209,0.0012,140.000,45.000,27851.08586,1.97591,408.305,31.908,45.068,45.000,0.00,0.09,-272.69,-272.75,-12,26,-0,18.8,0.7,-41.7,19.2,3.3,-26.1,5.73,2.60,-23.5,25.1
2015-02-04 00:58:00,0.0,1.97533,0.00050,408.198,0.026,0.0215,0.0009,140.000,45.000,27850.47028,1.97579,408.303,31.900,45.068,45.000,0.00,0.09,-272.69,-272.74,-12,26,-0,18.7,0.7,-41.8,19.2,3.3,-26.1,5.73,2.49,-23.5,25.1
2015-02-04 00:59:00,0.0,1.97562,0.00027,408.200,0.030,0.0212,0.0022,139.999,45.000,27849.43891,1.97601,408.303,31.932,45.068,45.000,0.00,0.09,-272.69,-272.74,-12,26,-0,18.7,0.7,-41.4,19.2,3.3,-26.2,5.73,2.46,-23.5,25.2
2015-02-04 01:00:00,0.0,1.97544,0.00034,408.197,0.045,0.0219,0.0017,139.998,45.000,27849.13634,1.97586,408.305,31.921,45.068,45.000,0.00,0.09,-272.69,-272.75,-12,26,-0,18.7,0.7,-41.5,19.2,3.3,-26.1,5.73,2.46,-23.5,25.1
2015-02-04 01:01:00,0.0,1.97563,0.00037,408.206,0.023,0.0208,0.0015,140.001,45.000,27849.94163,1.97604,408.309,31.880,45.068,45.000,0.00,0.09,-272.69,-272.75,-12,26,-0,18.7,0.7,-42.0,19.2,3.3,-26.2,5.73,2.45,-23.5,25.1
2015-02-04 01:02:00,0.0,1.97581,0.00034,408.226,0.032,0.0197,0.0018,140.002,45.000,27850.93858,1.97619,408.321,31.873,45.068,45.000,0.00,0.09,-272.69,-272.74,-12,26,-0,18.7,0.6,-42.7,19.2,3.3,-26.2,5.73,2.46,-23.5,25.1
2015-02-04 01:03:00,0.0,1.97582,0.00043,408.223,0.033,0.0193,0.0019,139.998,45.000,27851.33392,1.97621,408.319,31.870,45.068,45.000,0.00,0.09,-272.69,-272.76,-12,26,-0,18.7,0.6,-42.9,19.2,3.3,-26.1,5.73,2.46,-23.5,25.1
2015-02-04 01:04:00,0.0,1.97545,0.00037,408.243,0.040,0.0189,0.0023,139.997,45.000,27852.74757,1.97583,408.335,31.875,45.068,45.000,0.00,0.09,-272.69,-272.75,-12,26,-0,18.8,0.6,-43.0,19.2,3.3,-26.1,5.73,2.46,-23.5,25.1
2015-02-04 01:05:00,0.0,1.97528,0.00028,408.252,0.031,0.0204,0.0017,140.000,45.000,27853.12225,1.97565,408.352,31.873,45.068,45.000,0.00,0.09,-272.69,-272.74,-12,26,-0,18.8,0.7,-42.2,19.2,3.3,-26.1,5.73,2.47,-23.5,25.1
2015-02-04 01:06:00,0.0,1.97562,0.00035,408.225,0.038,0.0214,0.0018,140.000,45.000,27852.21141,1.97605,408.331,31.874,45.068,45.000,0.00,0.09,-272.69,-272.74,-12,26,-0,18.8,0.7,-41.7,19.2,3.3,-26.1,5.73,2.48,-23.5,25.1
2015-02-04 01:07:00,0.0,1.97550,0.00044,408.225,0.045,0.0220,0.0015,140.000,45.000,27852.85614,1.97589,408.332,31.874,45.068,45.000,0.00,0.09,-272.69,-272.75,-12,26,-0,18.8,0.7,-41.8,19.2,3.3,-26.1,5.73,2.48,-23.5,25.1
2015-02-04 01:08:00,0.0,1.97570,0.00040,408.260,0.023,0.0229,0.0022,139.997,45.000,27851.28663,1.97616,408.373,31.871,45.068,45.000,0.00,0.09,-272.69,-272.74,-12,26,-0,18.8,0.8,-41.2,19.2,3.3,-26.1,5.73,2.49,-23.5,25.1
2015-02-04 01:09:00,0.0,1.97534,0.00037,408.255,0.028,0.0240,0.0033,139.999,45.000,27850.42528,1.97586,408.371,31.874,45.068,45.000,0.00,0.09,-272.69,-272.74,-12,26,-0,18.8,0.8,-40.6,19.2,3.3,-26.2,5.73,2.49,-23.5,25.1
2015-02-04 01:10:00,0.0,1.97551,0.00029,408.245,0.039,0.0235,0.0023,139.998,45.000,27849.74260,1.97594,408.362,31.875,45.068,45.000,0.00,0.09,-272.70,-272.75,-12,26,-0,18.8,0.8,-40.6,19.2,3.3,-26.1,5.73,2.48,-23.6,25.1
2015-02-04 01:11:00,0.0,1.97517,0.00036,408.235,0.025,0.0219,0.0012,140.001,45.000,27850.85939,1.97560,408.341,31.875,45.068,45.000,0.00,0.09,-272.68,-272.75,-12,25,-0,18.8,0.8,-41.0,19.2,3.3,-26.1,5.73,2.48,-23.5,25.1
2015-02-04 01:12:00,0.0,1.97519,0.00035,408.264,0.026,0.0222,0.0018,139.999,45.000,27849.39849,1.97563,408.374,31.877,45.068,45.000,0.00,0.09,-272.68,-272.75,-12,25,-0,18.8,0.8,-41.0,19.1,3.3,-26.2,5.73,2.47,-23.5,25.1
2015-02-04 01:13:00,0.0,1.97529,0.00037,408.231,0.025,0.0220,0.0016,139.999,45.000,27849.47746,1.97573,408.339,31.884,45.068,45.000,0.00,0.09,-272.69,-272.75,-12,25,-0,18.8,0.8,-40.6,19.1,3.3,-26.2,5.73,2.45,-23.5,25.1
2015-02-04 01:14:00,0.0,1.97538,0.00046,408.242,0.037,0.0232,0.0018,140.002,45.000,27848.46650,1.97582,408.355,31.878,45.068,45.000,0.00,0.09,-272.69,-272.75,-12,25,-0,18.8,0.8,-41.0,19.1,3.3,-26.2,5.73,2.45,-23.5,25.1
2015-02-04 01:15:00,0.0,1.97533,0.00033,408.261,0.031,0.0219,0.0013,139.999,45.000,27847.28064,1.97574,408.367,31.877,45.068,45.000,0.00,0.09,-272.69,-272.74,-12,25,-0,18.7,0.8,-41.0,19.1,3.3,-26.2,5.73,2.45,-23.5,25.2
2015-02-04 01:16:00,0.0,1.97545,0.00044,408.232,0.033,0.0220,0.0012,140.000,45.000,27848.52854,1.97588,408.341,31.875,45.068,45.000,0.00,0.09,-272.68,-272.75,-12,25,-0,18.7,0.8,-41.2,19.1,3.3,-26.2,5.73,2.44,-23.5,25.2
2015-02-04 01:17:00,0.0,1.97555,0.00022,408.223,0.032,0.0212,0.0022,139.999,45.000,27848.49517,1.97596,408.327,31.876,45.068,45.000,0.00,0.09,-272.69,-272.75,-12,25,-0,18.8,0.7,-41.7,19.1,3.3,-26.2,5.73,2.46,-23.6,25.2
2015-02-04 01:18:00,0.0,1.97575,0.00037,408.254,0.032,0.0214,0.0020,140.002,45.000,27848.13851,1.97614,408.359,31.877,45.068,45.000,0.00,0.09,-272.68,-272.74,-12,25,-0,18.8,0.7,-42.3,19.1,3.3,-26.2,5.73,2.46,-23.5,25.2
2015-02-04 01:19:00,0.0,1.97559,0.00040,408.263,0.033,0.0207,0.0019,139.999,45.000,27847.64859,1.97602,408.364,31.875,45.068,45.000,0.00,0.09,-272.69,-272.75,-12,25,-0,18.8,0.7,-42.4,19.1,3.3,-26.2,5.73,2.47,-23.5,25.2
2015-02-04 01:20:00,0.0,1.97554,0.00036,408.260,0.031,0.0216,0.0020,140.000,45.000,27848.73566,1.97594,408.366,31.877,45.068,45.000,0.00,0.09,-272.70,-272.75,-12,25,-0,18.8,0.7,-41.9,19.1,3.3,-26.2,5.73,2.48,-23.6,25.2
2015-02-04 01:21:00,0.0,1.97529,0.00040,408.234,0.022,0.0226,0.0013,140.001,45.000,27850.05197,1.97574,408.346,31.872,45.068,45.000,0.00,0.09,-272.69,-272.75,-12,25,-0,18.8,0.7,-41.3,19.1,3.3,-26.2,5.73,2.49,-23.5,25.2
2015-02-04 01:22:00,0.0,1.97536,0.00029,408.268,0.032,0.0233,0.0017,140.000,45.000,27849.50396,1.97582,408.381,31.871,45.068,45.000,0.00,0.09,-272.69,-272.74,-12,25,-0,18.8,0.8,-40.8,19.1,3.3,-26.2,5.73,2.49,-23.5,25.2
2015-02-04 01:23:00,0.0,1.97521,0.00036,408.253,0.035,0.0231,0.0016,140.000,45.000,27848.90542,1.97563,408.368,31.873,45.068,45.000,0.00,0.09,-272.69,-272.74,-12,25,-0,18.8,0.8,-40.4,19.1,3.3,-26.2,5.73,2.49,-23.6,25.2
2015-02-04 01:24:00,0.0,1.97564,0.00035,408.266,0.029,0.0230,0.0019,140.000,45.000,27847.36124,1.97611,408.377,31.875,45.068,45.000,0.00,0.09,-272.69,-272.74,-12,25,-0,18.8,0.8,-40.2,19.1,3.3,-26.1,5.73,2.48,-23.6,25.2
2015-02-04 01:25:00,0.0,1.97539,0.00033,408.275,0.045,0.0246,0.0018,140.004,45.000,27847.62680,1.97584,408.395,31.875,45.068,45.000,0.00,0.09,-272.68,-272.74,-12,25,-0,18.8,0.9,-40.0,19.1,3.3,-26.2,5.73,2.46,-23.6,25.1
2015-02-04 01:26:00,0.0,1.97551,0.00030,408.262,0.033,0.0251,0.0016,139.999,45.000,27847.09207,1.97600,408.386,31.876,45.068,45.000,0.00,0.09,-272.69,-272.75,-12,25,-0,18.8,0.9,-39.8,19.1,3.3,-26.2,5.73,2.46,-23.6,25.2
2015-02-04 01:27:00,0.0,1.97547,0.00028,408.228,0.030,0.0251,0.0019,139.999,45.000,27846.13679,1.97598,408.351,31.875,45.068,45.000,0.00,0.09,-272.69,-272.75,-12,25,-0,18.8,0.9,-39.7,19.1,3.3,-26.2,5.73,2.45,-23.6,25.2
2015-02-04 01:28:00,0.0,1.97539,0.00031,408.244,0.027,0.0247,0.0023,139.999,45.000,27844.87419,1.97586,408.365,31.870,45.068,45.000,0.00,0.09,-272.68,-272.74,-12,25,-0,18.8,0.9,-39.7,19.1,3.3,-26.2,5.73,2.44,-23.6,25.2
2015-02-04 01:29:00,0.0,1.97541,0.00039,408.243,0.026,0.0240,0.0018,140.000,45.000,27844.88850,1.97588,408.360,31.873,45.068,45.000,0.00,0.09,-272.69,-272.74,-12,25,-0,18.8,0.9,-39.9,19.1,3.3,-26.2,5.73,2.45,-23.6,25.1
2015-02-04 01:30:00,0.0,1.97575,0.00037,408.272,0.034,0.0242,0.0023,139.999,45.000,27842.95113,1.97620,408.389,31.872,45.068,45.000,0.00,0.09,-272.69,-272.75,-12,25,-0,18.8,0.9,-40.0,19.1,3.3,-26.2,5.73,2.45,-23.6,25.1
2015-02-04 01:31:00,0.0,1.97657,0.00073,408.281,0.023,0.0228,0.0020,139.997,45.000,27843.11669,1.97698,408.394,31.850,45.068,45.000,0.00,0.09,-272.70,-272.75,-12,25,-0,18.8,0.8,-40.5,19.1,3.3,-26.2,5.73,2.47,-23.6,25.1
2015-02-04 01:32:00,0.0,1.97710,0.00047,408.252,0.039,0.0217,0.0021,139.999,45.000,27844.25079,1.97750,408.359,31.857,45.068,45.000,0.00,0.09,-272.68,-272.75,-12,25,-0,18.8,0.8,-41.2,19.1,3.3,-26.2,5.73,2.48,-23.6,25.1
2015-02-04 01:33:00,0.0,1.97702,0.00039,408.267,0.035,0.0219,0.0016,140.000,45.000,27843.33585,1.97750,408.374,31.865,45.068,45.000,0.00,0.09,-272.69,-272.74,-12,25,-0,18.8,0.7,-41.6,19.2,3.3,-26.2,5.73,2.49,-23.6,25.1
2015-02-04 01:34:00,0.0,1.97655,0.00033,408.277,0.027,0.0215,0.0018,140.001,45.000,27843.32124,1.97695,408.382,31.851,45.068,45.000,0.00,0.09,-272.70,-272.74,-12,25,-0,18.8,0.7,-41.7,19.1,3.3,-26.2,5.73,2.50,-23.6,25.1
2015-02-04 01:35:00,0.0,1.97644,0.00043,408.270,0.036,0.0210,0.0012,140.000,45.000,27842.35833,1.97685,408.373,31.848,45.068,45.000,0.00,0.09,-272.69,-272.73,-12,25,-0,18.8,0.7,-41.7,19.1,3.3,-26.2,5.73,2.49,-23.6,25.1
2015-02-04 01:36:00,0.0,1.97650,0.00033,408.256,0.030,0.0212,0.0019,140.001,45.000,27841.99641,1.97693,408.361,31.815,45.068,45.000,0.00,0.09,-272.69,-272.74,-12,25,-0,18.8,0.7,-41.7,19.2,3.3,-26.1,5.73,2.48,-23.6,25.1
2015-02-04 01:37:00,0.0,1.97667,0.00043,408.258,0.019,0.0210,0.0017,139.999,45.000,27841.66031,1.97708,408.362,31.812,45.068,45.000,0.00,0.09,-272.69,-272.75,-12,25,-0,18.8,0.7,-41.6,19.1,3.3,-26.2,5.73,2.46,-23.6,25.1
2015-02-04 01:38:00,0.0,1.97645,0.00040,408.279,0.028,0.0214,0.0015,140.002,45.000,27841.76256,1.97687,408.383,31.806,45.068,45.000,0.00,0.09,-272.69,-272.74,-12,25,-0,18.8,0.7,-41.9,19.1,3.3,-26.2,5.73,2.45,-23.6,25.1
2015-02-04 01:39:00,0.0,1.97630,0.00042,408.253,0.034,0.0216,0.0019,140.002,45.000,27840.58648,1.97672,408.359,31.811,45.068,45.000,0.00,0.09,-272.68,-272.74,-12,25,-0,18.8,0.7,-42.1,19.1,3.3,-26.2,5.73,2.45,-23.6,25.1
2015-02-04 01:40:00,0.0,1.97664,0.00032,408.284,0.024,0.0207,0.0018,139.999,45.000,27838.43961,1.97703,408.385,31.819,45.068,45.000,0.00,0.09,-272.69,-272.75,-12,25,-0,18.8,0.7,-42.0,19.1,3.3,-26.2,5.73,2.44,-23.6,25.1
2015-02-04 01:41:00,0.0,1.97671,0.00039,408.267,0.036,0.0210,0.0015,140.001,45.000,27839.05792,1.97710,408.371,31.852,45.068,45.000,0.00,0.09,-272.70,-272.75,-12,25,-0,18.8,0.7,-41.7,19.1,3.3,-26.2,5.73,2.45,-23.6,25.1
2015-02-04 01:42:00,0.0,1.97625,0.00056,408.269,0.030,0.0212,0.0018,139.998,45.000,27838.34514,1.97669,408.372,31.872,45.068,45.000,0.00,0.09,-272.68,-272.75,-12,25,-0,18.7,0.7,-41.8,19.1,3.3,-26.2,5.73,2.46,-23.6,25.1
2015-02-04 01:43:00,0.0,1.97534,0.00033,408.258,0.035,0.0226,0.0020,139.998,45.000,27838.69595,1.97581,408.368,31.875,45.068,45.000,0.00,0.09,-272.69,-272.75,-12,25,-0,18.8,0.8,-40.9,19.1,3.3,-26.2,5.73,2.47,-23.6,25.1
2015-02-04 01:44:00,0.0,1.97520,0.00038,408.264,0.030,0.0240,0.0015,140.001,45.000,27839.92882,1.97567,408.382,31.874,45.068,45.000,0.00,0.09,-272.70,-272.76,-12,25,-0,18.8,0.9,-39.9,19.1,3.3,-26.2,5.73,2.48,-23.6,25.1
2015-02-04 01:45:00,0.0,1.97508,0.00051,408.202,0.035,0.0257,0.0017,139.999,45.000,27841.31786,1.97557,408.328,31.861,45.068,45.000,0.00,0.09,-272.68,-272.75,-12,25,-0,18.8,0.9,-39.2,19.1,3.3,-26.2,5.73,2.49,-23.6,25.2
2015-02-04 01:46:00,0.0,1.97522,0.00043,408.227,0.022,0.0258,0.0014,140.001,45.000,27840.30617,1.97571,408.353,31.821,45.068,45.000,0.00,0.09,-272.68,-272.75,-12,25,-0,18.7,0.9,-39.2,19.1,3.3,-26.2,5.73,2.49,-23.6,25.1